IRM065 OIIE-OMDB

Flight info

Callsign IRM065
Flight time N/A
Altitude 37000
Route EGVEL P574 SYZ G666 ORSAR/N0453F250 R784 TATLA L223 VUTEB
Aircraft A346/H-SDE2E3FGHIJ3J4J5M1RWXY/LB1D1

Departure

Time 2026-05-07 23:20
Airport Imam Khomeini International Airport (OIIE)

Arrival

Time N/A
Airport Dubai International Airport (OMDB)
Time Latitude Longitude Altitude Speed Heading
2026-05-07 22:48 35.41167 51.15013 3270 ft 0 kts 199°
2026-05-07 23:09 35.41168 51.15013 3273 ft 1 kts 199°
2026-05-07 23:09 35.41190 51.15022 3265 ft 4 kts 204°
2026-05-07 23:09 35.41214 51.15036 3265 ft 4 kts 209°
2026-05-07 23:10 35.41237 51.15054 3264 ft 4 kts 214°
2026-05-07 23:10 35.41259 51.15073 3263 ft 4 kts 216°
2026-05-07 23:10 35.41264 51.15078 3266 ft 0 kts 216°
2026-05-07 23:13 35.41259 51.15075 3263 ft 1 kts 195°
2026-05-07 23:14 35.41248 51.15077 3264 ft 2 kts 143°
2026-05-07 23:14 35.41244 51.15108 3265 ft 7 kts 85°
2026-05-07 23:14 35.41263 51.15142 3266 ft 7 kts 34°
2026-05-07 23:14 35.41301 51.15160 3265 ft 9 kts 18°
2026-05-07 23:15 35.41366 51.15188 3268 ft 7 kts 25°
2026-05-07 23:15 35.41388 51.15226 3265 ft 8 kts 79°
2026-05-07 23:15 35.41371 51.15315 3264 ft 14 kts 109°
2026-05-07 23:15 35.41334 51.15445 3265 ft 18 kts 109°
2026-05-07 23:16 35.41290 51.15605 3263 ft 21 kts 108°
2026-05-07 23:16 35.41241 51.15785 3264 ft 23 kts 109°
2026-05-07 23:16 35.41186 51.15980 3264 ft 25 kts 109°
2026-05-07 23:16 35.41126 51.16192 3261 ft 26 kts 109°
2026-05-07 23:17 35.41081 51.16354 3259 ft 18 kts 109°
2026-05-07 23:17 35.41061 51.16440 3257 ft 6 kts 85°
2026-05-07 23:17 35.41098 51.16487 3258 ft 10 kts 28°
2026-05-07 23:17 35.41170 51.16522 3258 ft 12 kts 19°
2026-05-07 23:18 35.41259 51.16559 3258 ft 14 kts 18°
2026-05-07 23:18 35.41313 51.16555 3258 ft 7 kts 320°
2026-05-07 23:18 35.41333 51.16511 3257 ft 0 kts 290°
2026-05-07 23:18 35.41342 51.16482 3258 ft 16 kts 290°
2026-05-07 23:19 35.41454 51.16081 3264 ft 82 kts 289°
2026-05-07 23:19 35.41705 51.15183 3272 ft 138 kts 289°
2026-05-07 23:19 35.42069 51.13870 3313 ft 182 kts 289°
2026-05-07 23:19 35.42474 51.12375 3893 ft 184 kts 290°
2026-05-07 23:20 35.42892 51.10903 4666 ft 182 kts 288°
2026-05-07 23:20 35.43343 51.09438 5260 ft 187 kts 288°
2026-05-07 23:20 35.43805 51.07895 5617 ft 198 kts 287°
2026-05-07 23:20 35.44262 51.06237 6020 ft 211 kts 285°
2026-05-07 23:21 35.44567 51.05089 6273 ft 219 kts 286°
2026-05-07 23:21 35.45212 51.02639 6780 ft 237 kts 286°
2026-05-07 23:21 35.45585 51.00593 7088 ft 255 kts 267°
2026-05-07 23:21 35.45126 50.98446 7510 ft 268 kts 239°
2026-05-07 23:22 35.44369 50.97221 7849 ft 276 kts 224°
2026-05-07 23:22 35.42734 50.95956 8588 ft 282 kts 201°
2026-05-07 23:22 35.40780 50.95626 9534 ft 286 kts 176°
2026-05-07 23:22 35.38889 50.96472 10375 ft 296 kts 148°
2026-05-07 23:23 35.37482 50.98391 11011 ft 318 kts 121°
2026-05-07 23:23 35.36912 51.01103 11472 ft 344 kts 92°
2026-05-07 23:23 35.37359 51.04074 11956 ft 366 kts 74°
2026-05-07 23:23 35.38207 51.07101 12433 ft 384 kts 71°
2026-05-07 23:24 35.39147 51.10286 12978 ft 400 kts 72°
2026-05-07 23:24 35.40031 51.13594 13525 ft 415 kts 74°
2026-05-07 23:24 35.40837 51.17071 14107 ft 427 kts 76°
2026-05-07 23:24 35.41797 51.20536 14877 ft 433 kts 64°
2026-05-07 23:25 35.43628 51.23469 15669 ft 436 kts 40°
2026-05-07 23:25 35.46221 51.25372 16417 ft 435 kts 17°
2026-05-07 23:25 35.49172 51.26049 17205 ft 431 kts 357°
2026-05-07 23:25 35.52150 51.25546 18018 ft 424 kts 338°
2026-05-07 23:26 35.54782 51.23996 18726 ft 417 kts 320°
2026-05-07 23:26 35.56889 51.21608 19352 ft 410 kts 302°
2026-05-07 23:26 35.58241 51.18575 20004 ft 403 kts 285°
2026-05-07 23:26 35.58752 51.15207 20688 ft 398 kts 268°
2026-05-07 23:27 35.57337 51.08777 22182 ft 394 kts 237°
2026-05-07 23:27 35.55554 51.06195 22877 ft 398 kts 225°
2026-05-07 23:27 35.53622 51.03740 23623 ft 400 kts 229°
2026-05-07 23:28 35.51784 51.01154 24174 ft 404 kts 230°
2026-05-07 23:28 35.49929 50.98504 24716 ft 408 kts 230°
2026-05-07 23:28 35.48072 50.95847 25324 ft 410 kts 230°
2026-05-07 23:28 35.46212 50.93186 25955 ft 411 kts 230°
2026-05-07 23:29 35.44344 50.90519 26595 ft 412 kts 229°
2026-05-07 23:29 35.42189 50.88235 27120 ft 420 kts 216°
2026-05-07 23:29 35.39513 50.86733 27716 ft 429 kts 202°
2026-05-07 23:29 35.36629 50.85758 28410 ft 428 kts 202°
2026-05-07 23:30 35.33889 50.84405 29063 ft 424 kts 208°
2026-05-07 23:30 35.31192 50.82958 29910 ft 420 kts 208°
2026-05-07 23:30 35.28533 50.81533 30710 ft 415 kts 208°
2026-05-07 23:30 35.25905 50.80112 31463 ft 410 kts 209°
2026-05-07 23:31 35.23310 50.78693 32183 ft 407 kts 209°
2026-05-07 23:31 35.20712 50.77264 32904 ft 403 kts 210°
2026-05-07 23:31 35.18170 50.75860 33621 ft 400 kts 210°
2026-05-07 23:31 35.15643 50.74461 34270 ft 396 kts 210°
2026-05-07 23:32 35.13140 50.73075 34854 ft 393 kts 210°
2026-05-07 23:32 35.10653 50.71695 35385 ft 392 kts 211°
2026-05-07 23:32 35.08171 50.70318 35831 ft 392 kts 211°
2026-05-07 23:32 35.05675 50.68934 36166 ft 395 kts 211°
2026-05-07 23:33 35.03149 50.67531 36472 ft 397 kts 211°
2026-05-07 23:33 35.00629 50.66134 36810 ft 399 kts 211°
2026-05-07 23:33 34.98101 50.64733 36993 ft 401 kts 211°
2026-05-07 23:33 34.95558 50.63325 36985 ft 400 kts 211°
2026-05-07 23:34 34.90525 50.60545 36995 ft 399 kts 211°
2026-05-07 23:34 34.85455 50.57750 37001 ft 399 kts 211°
2026-05-07 23:35 34.80338 50.55025 37002 ft 403 kts 207°
2026-05-07 23:35 34.74822 50.53301 37011 ft 415 kts 198°
2026-05-07 23:36 34.68952 50.52920 37014 ft 429 kts 187°
2026-05-07 23:36 34.62951 50.54036 37026 ft 445 kts 176°
2026-05-07 23:37 34.56972 50.56420 37011 ft 453 kts 172°
2026-05-07 23:37 34.51044 50.58947 37039 ft 455 kts 172°
2026-05-07 23:38 34.45012 50.61526 37049 ft 455 kts 172°
2026-05-07 23:38 34.38987 50.64093 37051 ft 456 kts 172°
2026-05-07 23:39 34.32966 50.66655 37062 ft 457 kts 172°
2026-05-07 23:39 34.26907 50.69224 37303 ft 461 kts 172°
2026-05-07 23:40 34.23892 50.70506 37847 ft 460 kts 172°
2026-05-07 23:40 34.20884 50.71787 38539 ft 457 kts 173°
2026-05-07 23:40 34.17893 50.73058 38940 ft 455 kts 173°
2026-05-07 23:40 34.14901 50.74319 39084 ft 457 kts 173°
2026-05-07 23:41 34.08890 50.76850 39090 ft 458 kts 173°
2026-05-07 23:41 34.02863 50.79391 39095 ft 458 kts 173°
2026-05-07 23:42 33.96858 50.81922 39101 ft 457 kts 173°
2026-05-07 23:42 33.90888 50.84432 39102 ft 457 kts 173°
2026-05-07 23:43 33.84877 50.86956 39102 ft 457 kts 173°
2026-05-07 23:43 33.78872 50.89471 39107 ft 458 kts 173°
2026-05-07 23:44 33.72845 50.91994 39122 ft 458 kts 173°
2026-05-07 23:44 33.66811 50.94518 39124 ft 459 kts 173°
2026-05-07 23:45 33.60776 50.97037 39135 ft 459 kts 173°
2026-05-07 23:45 33.54740 50.99552 39130 ft 459 kts 173°
2026-05-07 23:46 33.48712 51.02062 39142 ft 458 kts 173°
2026-05-07 23:46 33.42685 51.04565 39150 ft 458 kts 173°
2026-05-07 23:47 33.36701 51.07049 39137 ft 458 kts 173°
2026-05-07 23:47 33.30675 51.09548 39149 ft 458 kts 173°
2026-05-07 23:48 33.24651 51.12038 39151 ft 458 kts 173°
2026-05-07 23:48 33.18617 51.14528 39141 ft 458 kts 173°
2026-05-07 23:49 33.12596 51.17015 39150 ft 457 kts 174°
2026-05-07 23:49 33.06594 51.19484 39146 ft 457 kts 174°
2026-05-07 23:50 33.00587 51.21953 39126 ft 456 kts 174°
2026-05-07 23:50 32.94588 51.24415 39141 ft 457 kts 174°
2026-05-07 23:51 32.88618 51.26863 39150 ft 457 kts 174°
2026-05-07 23:51 32.82614 51.29322 39148 ft 456 kts 174°
2026-05-07 23:52 32.76584 51.31794 39145 ft 459 kts 174°
2026-05-07 23:52 32.70538 51.34262 39143 ft 459 kts 174°
2026-05-07 23:53 32.64489 51.36730 39146 ft 460 kts 174°
2026-05-07 23:53 32.58429 51.39199 39140 ft 459 kts 175°
2026-05-07 23:54 32.52382 51.41660 39147 ft 459 kts 175°
2026-05-07 23:54 32.46339 51.44115 39143 ft 459 kts 175°
2026-05-07 23:55 32.40295 51.46564 39151 ft 458 kts 175°
2026-05-07 23:55 32.34264 51.49009 39143 ft 458 kts 175°
2026-05-07 23:56 32.28241 51.51446 39164 ft 458 kts 175°
2026-05-07 23:56 32.22205 51.53883 39158 ft 458 kts 175°
2026-05-07 23:57 32.16219 51.56297 39160 ft 457 kts 175°
2026-05-07 23:57 32.10187 51.58722 39152 ft 458 kts 175°
2026-05-07 23:58 32.04148 51.61151 39165 ft 457 kts 174°
2026-05-07 23:58 31.98137 51.63567 39174 ft 456 kts 174°
2026-05-07 23:59 31.92137 51.65974 39186 ft 456 kts 174°
2026-05-07 23:59 31.86135 51.68375 39163 ft 454 kts 174°
2026-05-08 00:00 31.80141 51.70773 39202 ft 454 kts 174°
2026-05-08 00:00 31.74160 51.73162 39202 ft 454 kts 174°
2026-05-08 00:01 31.68165 51.75554 39196 ft 456 kts 174°
2026-05-08 00:01 31.62191 51.77938 39219 ft 457 kts 174°
2026-05-08 00:02 31.56172 51.80340 39227 ft 457 kts 174°
2026-05-08 00:02 31.50151 51.82738 39213 ft 457 kts 174°
2026-05-08 00:03 31.44124 51.85131 39231 ft 458 kts 173°
2026-05-08 00:03 31.38089 51.87528 39237 ft 458 kts 173°
2026-05-08 00:04 31.32058 51.89920 39217 ft 457 kts 173°
2026-05-08 00:04 31.26014 51.92307 39228 ft 458 kts 173°
2026-05-08 00:05 31.19968 51.94698 39231 ft 459 kts 173°
2026-05-08 00:05 31.13918 51.97088 39232 ft 459 kts 173°
2026-05-08 00:06 31.07857 51.99474 39227 ft 459 kts 173°
2026-05-08 00:06 31.01835 52.01846 39231 ft 459 kts 173°
2026-05-08 00:07 30.95783 52.04225 39228 ft 459 kts 173°
2026-05-08 00:07 30.89720 52.06605 39221 ft 460 kts 173°
2026-05-08 00:08 30.83647 52.08984 39224 ft 461 kts 173°
2026-05-08 00:08 30.78591 52.10968 39229 ft 461 kts 173°
2026-05-08 00:09 30.72505 52.13342 39194 ft 461 kts 173°
2026-05-08 00:09 30.66400 52.15724 39212 ft 463 kts 173°
2026-05-08 00:10 30.60294 52.18104 39200 ft 463 kts 173°
2026-05-08 00:10 30.54173 52.20481 39202 ft 463 kts 172°
2026-05-08 00:11 30.48060 52.22853 39193 ft 463 kts 173°
2026-05-08 00:11 30.41926 52.25229 39181 ft 464 kts 172°
2026-05-08 00:12 30.35802 52.27595 39171 ft 463 kts 172°
2026-05-08 00:12 30.29727 52.29940 39170 ft 463 kts 172°
2026-05-08 00:13 30.23609 52.32298 39172 ft 463 kts 172°
2026-05-08 00:13 30.17488 52.34654 39174 ft 463 kts 173°
2026-05-08 00:14 30.11368 52.37002 39137 ft 463 kts 172°
2026-05-08 00:14 30.05252 52.39346 39149 ft 463 kts 172°
2026-05-08 00:15 29.99126 52.41696 39155 ft 463 kts 172°
2026-05-08 00:15 29.93048 52.44023 39124 ft 463 kts 172°
2026-05-08 00:16 29.86924 52.46361 39131 ft 464 kts 172°
2026-05-08 00:16 29.80800 52.48701 39127 ft 463 kts 172°
2026-05-08 00:17 29.74677 52.51037 39118 ft 464 kts 172°
2026-05-08 00:17 29.68537 52.53371 39106 ft 466 kts 172°
2026-05-08 00:18 29.62368 52.55716 39107 ft 467 kts 172°
2026-05-08 00:18 29.56206 52.58059 39112 ft 466 kts 172°
2026-05-08 00:19 29.50039 52.60024 39119 ft 461 kts 176°
2026-05-08 00:19 29.43824 52.61795 39114 ft 461 kts 176°
2026-05-08 00:20 29.37594 52.63569 39113 ft 461 kts 176°
2026-05-08 00:20 29.31361 52.65340 39082 ft 461 kts 175°
2026-05-08 00:21 29.25124 52.67108 39112 ft 462 kts 175°
2026-05-08 00:21 29.18878 52.68879 39095 ft 462 kts 175°
2026-05-08 00:22 29.12651 52.70643 39100 ft 462 kts 176°
2026-05-08 00:22 29.06429 52.72401 39068 ft 461 kts 175°
2026-05-08 00:23 29.00221 52.74152 39071 ft 461 kts 175°
2026-05-08 00:23 28.94033 52.75899 39063 ft 461 kts 176°
2026-05-08 00:24 28.87820 52.77645 39038 ft 461 kts 175°
2026-05-08 00:24 28.81628 52.79390 39053 ft 461 kts 175°
2026-05-08 00:25 28.75439 52.81132 39037 ft 459 kts 175°
2026-05-08 00:25 28.69294 52.82859 39012 ft 457 kts 175°
2026-05-08 00:26 28.63152 52.84573 38980 ft 459 kts 175°
2026-05-08 00:26 28.56973 52.86307 38997 ft 458 kts 175°
2026-05-08 00:27 28.50770 52.88040 38976 ft 457 kts 175°
2026-05-08 00:27 28.44556 52.89766 38948 ft 458 kts 175°
2026-05-08 00:28 28.38349 52.91488 38944 ft 459 kts 175°
2026-05-08 00:28 28.32135 52.93164 38944 ft 459 kts 175°
2026-05-08 00:29 28.25918 52.94831 38921 ft 458 kts 175°
2026-05-08 00:29 28.19707 52.96495 38925 ft 458 kts 175°
2026-05-08 00:30 28.13541 52.98146 38925 ft 458 kts 175°
2026-05-08 00:30 28.07333 52.99806 38927 ft 458 kts 175°
2026-05-08 00:31 28.01136 53.01459 38901 ft 458 kts 175°
2026-05-08 00:31 27.94906 53.03122 38914 ft 459 kts 175°
2026-05-08 00:32 27.88685 53.04783 38909 ft 459 kts 175°
2026-05-08 00:32 27.82467 53.06440 38908 ft 459 kts 175°
2026-05-08 00:33 27.76260 53.08088 38895 ft 458 kts 174°
2026-05-08 00:33 27.70106 53.09725 38896 ft 458 kts 174°
2026-05-08 00:34 27.63863 53.11382 38896 ft 458 kts 174°
2026-05-08 00:34 27.57710 53.13011 38876 ft 457 kts 174°
2026-05-08 00:35 27.51513 53.14650 38856 ft 456 kts 174°
2026-05-08 00:35 27.45337 53.16283 38875 ft 456 kts 174°
2026-05-08 00:36 27.39147 53.17917 38852 ft 457 kts 174°
2026-05-08 00:36 27.32976 53.19740 38849 ft 459 kts 172°
2026-05-08 00:37 27.26814 53.21638 38833 ft 459 kts 172°
2026-05-08 00:38 27.17622 53.24462 38810 ft 459 kts 172°
2026-05-08 00:38 27.11771 53.26251 38790 ft 460 kts 172°
2026-05-08 00:39 27.06067 53.28000 38781 ft 460 kts 172°
2026-05-08 00:39 27.00725 53.29637 38785 ft 460 kts 172°
2026-05-08 00:40 26.95510 53.31231 38768 ft 460 kts 172°
2026-05-08 00:40 26.89293 53.33237 38772 ft 463 kts 168°
2026-05-08 00:41 26.83850 53.35683 38769 ft 470 kts 161°
2026-05-08 00:41 26.78179 53.39149 38756 ft 477 kts 154°
2026-05-08 00:42 26.72788 53.43503 38547 ft 484 kts 147°
2026-05-08 00:42 26.70242 53.45886 38282 ft 483 kts 146°
2026-05-08 00:42 26.67735 53.48257 37853 ft 480 kts 146°
2026-05-08 00:42 26.65177 53.50675 36981 ft 484 kts 146°
2026-05-08 00:43 26.62592 53.53107 36026 ft 491 kts 146°
2026-05-08 00:43 26.59966 53.55573 35167 ft 496 kts 146°
2026-05-08 00:43 26.57311 53.58042 33939 ft 498 kts 147°
2026-05-08 00:43 26.54531 53.60404 32310 ft 500 kts 150°
2026-05-08 00:44 26.51665 53.62607 30765 ft 502 kts 151°
2026-05-08 00:44 26.48761 53.64794 29859 ft 500 kts 150°
2026-05-08 00:44 26.45937 53.66925 29165 ft 498 kts 150°
2026-05-08 00:44 26.43072 53.69085 28398 ft 497 kts 150°
2026-05-08 00:45 26.40196 53.71253 27701 ft 494 kts 150°
2026-05-08 00:45 26.37383 53.73375 27190 ft 488 kts 149°
2026-05-08 00:45 26.34620 53.75460 26686 ft 482 kts 149°
2026-05-08 00:45 26.31867 53.77537 26188 ft 476 kts 149°
2026-05-08 00:46 26.29126 53.79599 25617 ft 473 kts 149°
2026-05-08 00:46 26.26481 53.81590 25118 ft 468 kts 148°
2026-05-08 00:46 26.23829 53.83586 24567 ft 465 kts 148°
2026-05-08 00:46 26.21159 53.85593 24062 ft 461 kts 148°
2026-05-08 00:47 26.18580 53.87531 23592 ft 456 kts 148°
2026-05-08 00:47 26.16050 53.89430 23115 ft 452 kts 147°
2026-05-08 00:47 26.13649 53.91234 22643 ft 447 kts 147°
2026-05-08 00:47 26.11271 53.93023 22203 ft 441 kts 147°
2026-05-08 00:48 26.09149 53.94902 21785 ft 438 kts 139°
2026-05-08 00:48 26.07282 53.97102 21382 ft 435 kts 131°
2026-05-08 00:48 26.05720 53.99559 20956 ft 432 kts 123°
2026-05-08 00:48 26.04440 54.02121 20565 ft 429 kts 120°
2026-05-08 00:49 26.03253 54.04642 20179 ft 425 kts 119°
2026-05-08 00:49 26.02143 54.07032 19812 ft 422 kts 118°
2026-05-08 00:49 26.01070 54.09334 19457 ft 419 kts 119°
2026-05-08 00:49 26.00003 54.11607 19097 ft 417 kts 119°
2026-05-08 00:50 25.98922 54.13896 18737 ft 414 kts 119°
2026-05-08 00:50 25.97898 54.16054 18387 ft 412 kts 119°
2026-05-08 00:50 25.96864 54.18224 18040 ft 409 kts 119°
2026-05-08 00:50 25.95844 54.20361 17652 ft 407 kts 119°
2026-05-08 00:51 25.94566 54.23037 17199 ft 403 kts 119°
2026-05-08 00:51 25.93296 54.25707 16741 ft 399 kts 118°
2026-05-08 00:51 25.92096 54.28492 16306 ft 396 kts 115°
2026-05-08 00:51 25.91076 54.31244 15872 ft 393 kts 112°
2026-05-08 00:52 25.90170 54.34046 15433 ft 390 kts 110°
2026-05-08 00:52 25.89282 54.36865 15001 ft 387 kts 110°
2026-05-08 00:52 25.88404 54.39659 14563 ft 384 kts 110°
2026-05-08 00:52 25.87545 54.42394 14142 ft 381 kts 110°
2026-05-08 00:53 25.86671 54.45176 13711 ft 379 kts 110°
2026-05-08 00:53 25.85821 54.47879 13248 ft 376 kts 110°
2026-05-08 00:53 25.84980 54.50550 12799 ft 373 kts 110°
2026-05-08 00:53 25.84111 54.53301 12345 ft 387 kts 110°
2026-05-08 00:54 25.83230 54.56092 11872 ft 389 kts 110°
2026-05-08 00:54 25.82343 54.58900 11406 ft 388 kts 109°
2026-05-08 00:54 25.81470 54.61660 10970 ft 387 kts 109°
2026-05-08 00:54 25.80598 54.64385 10823 ft 386 kts 111°
2026-05-08 00:55 25.79372 54.66980 10664 ft 385 kts 124°
2026-05-08 00:55 25.77694 54.69196 10522 ft 385 kts 135°
2026-05-08 00:55 25.75863 54.71148 10373 ft 385 kts 137°
2026-05-08 00:55 25.73982 54.73089 10251 ft 386 kts 137°
2026-05-08 00:56 25.72126 54.74999 10123 ft 385 kts 137°
2026-05-08 00:56 25.70368 54.76818 10011 ft 372 kts 136°
2026-05-08 00:56 25.69192 54.78043 9807 ft 367 kts 136°
2026-05-08 00:56 25.67353 54.79971 9430 ft 360 kts 136°
2026-05-08 00:57 25.65569 54.81846 9093 ft 352 kts 136°
2026-05-08 00:57 25.63893 54.83605 8790 ft 345 kts 136°
2026-05-08 00:57 25.62162 54.85419 8404 ft 340 kts 137°
2026-05-08 00:57 25.60381 54.87091 8026 ft 335 kts 143°
2026-05-08 00:58 25.58530 54.88625 7683 ft 330 kts 144°
2026-05-08 00:58 25.56684 54.90126 7342 ft 325 kts 145°
2026-05-08 00:58 25.54876 54.91591 7014 ft 320 kts 145°
2026-05-08 00:58 25.53092 54.93038 6697 ft 316 kts 145°
2026-05-08 00:59 25.51337 54.94469 6388 ft 311 kts 145°
2026-05-08 00:59 25.49603 54.95887 6078 ft 307 kts 145°
2026-05-08 00:59 25.47881 54.97306 5772 ft 303 kts 142°
2026-05-08 00:59 25.46502 54.98870 5493 ft 300 kts 129°
2026-05-08 01:00 25.45368 55.00754 5222 ft 297 kts 123°
2026-05-08 01:00 25.44313 55.02698 4941 ft 293 kts 122°
2026-05-08 01:00 25.43293 55.04598 4674 ft 289 kts 123°
2026-05-08 01:00 25.42265 55.06489 4424 ft 284 kts 123°
2026-05-08 01:01 25.41212 55.08399 4247 ft 276 kts 123°
2026-05-08 01:01 25.40191 55.10161 4149 ft 264 kts 128°
2026-05-08 01:01 25.39127 55.11770 4028 ft 256 kts 128°
2026-05-08 01:01 25.38107 55.13380 3762 ft 255 kts 126°
2026-05-08 01:02 25.37127 55.15034 3548 ft 251 kts 124°
2026-05-08 01:02 25.36207 55.16657 3364 ft 245 kts 124°
2026-05-08 01:02 25.35337 55.18226 3313 ft 240 kts 124°
2026-05-08 01:02 25.34448 55.19834 3201 ft 234 kts 123°
2026-05-08 01:03 25.33607 55.21359 2924 ft 235 kts 123°
2026-05-08 01:03 25.32742 55.22927 2625 ft 236 kts 123°
2026-05-08 01:03 25.31880 55.24487 2369 ft 235 kts 123°
2026-05-08 01:03 25.31034 55.26020 2089 ft 232 kts 123°
2026-05-08 01:04 25.30198 55.27534 1763 ft 227 kts 123°
2026-05-08 01:04 25.29390 55.28999 1471 ft 218 kts 123°
2026-05-08 01:04 25.28612 55.30407 1195 ft 207 kts 122°
2026-05-08 01:04 25.27887 55.31724 938 ft 194 kts 122°
2026-05-08 01:05 25.27203 55.32963 730 ft 180 kts 123°
2026-05-08 01:05 25.26574 55.34113 526 ft 169 kts 122°
2026-05-08 01:05 25.25985 55.35178 333 ft 157 kts 124°
2026-05-08 01:05 25.25428 55.36184 108 ft 149 kts 123°
2026-05-08 01:06 25.25044 55.36876 38 ft 149 kts 123°